GW6149 Weather Reports


time (UTC)temp
F
wind
direction
speed
knots
gust
knots
rain 1hr
in
rain 24hr
in
rain mn
in
humidity
%
barometer
mb
20260505011600 64 227 1.7 2.6 0.00 0.00 0.00 61 1009.5
20260505011058 65 244 0.9 1.7 0.00 0.00 0.00 60 1009.7
20260505010553 65 219 0.9 1.7 0.00 0.00 0.00 59 1009.4
20260505010050 66 174 1.7 3.5 0.00 0.00 0.00 58 1009.2
20260505005546 66 111 1.7 3.5 0.00 0.00 0.00 57 1009.2
20260505005044 66 46 0.9 1.7 0.00 0.00 0.00 57 1009.3
20260505004540 66 304 1.7 5.2 0.00 0.00 0.00 57 1009.1
20260505004037 66 247 2.6 2.6 0.00 0.00 0.00 57 1009.2
20260505003535 67 186 1.7 2.6 0.00 0.00 0.00 55 1009.3
20260505003032 68 96 2.6 2.6 0.00 0.00 0.00 54 1009.5
20260505002532 69 215 3.5 6.1 0.00 0.00 0.00 52 1009.3
20260505002031 69 243 5.2 7.0 0.00 0.00 0.00 51 1009.0
20260505001528 69 227 3.5 7.0 0.00 0.00 0.00 51 1009.0
20260505001025 69 219 5.2 9.6 0.00 0.00 0.00 50 1009.0
20260505000523 70 165 7.0 11.3 0.00 0.00 0.00 49 1009.1
20260505000020 70 116 5.2 13.0 0.00 0.00 0.00 49 1009.2
20260504235517 69 219 5.2 8.7 0.00 0.00 0.00 49 1009.1
20260504235013 69 233 6.1 8.7 0.00 0.00 0.00 49 1009.1
20260504234510 69 239 7.8 9.6 0.00 0.00 0.00 49 1008.7
20260504234007 69 244 7.8 11.3 0.00 0.00 0.00 49 1008.8
20260504233502 70 276 3.5 7.8 0.00 0.00 0.00 49 1008.6
20260504233000 71 244 1.7 8.7 0.00 0.00 0.00 49 1008.7
20260504232457 71 238 7.0 12.2 0.00 0.00 0.00 48 1008.6
20260504231954 71 242 7.8 12.2 0.00 0.00 0.00 48 1008.7
20260504231450 72 237 5.2 8.7 0.00 0.00 0.00 48 1008.6
20260504230947 72 234 9.6 12.2 0.00 0.00 0.00 47 1008.7
20260504230443 72 236 7.0 13.0 0.00 0.00 0.00 46 1008.6
20260504225943 72 247 11.3 15.6 0.00 0.00 0.00 45 1008.4
20260504225439 72 215 7.8 13.0 0.00 0.00 0.00 45 1008.5
20260504224936 72 234 11.3 15.6 0.00 0.00 0.00 45 1008.4
20260504224432 73 243 13.9 14.8 0.00 0.00 0.00 44 1008.6
20260504223930 73 247 12.2 13.0 0.00 0.00 0.00 44 1008.5
20260504223425 73 234 5.2 11.3 0.00 0.00 0.00 47 1008.4
20260504222921 74 316 6.1 13.0 0.00 0.00 0.00 48 1008.2
20260504222419 73 260 1.7 7.8 0.00 0.00 0.00 47 1008.2
20260504221917 73 209 7.0 9.6 0.00 0.00 0.00 47 1008.4
20260504221413 74 238 5.2 7.0 0.00 0.00 0.00 47 1008.6
20260504220910 74 321 4.3 7.0 0.00 0.00 0.00 47 1008.5
20260504220407 73 38 6.1 12.2 0.00 0.00 0.00 46 1008.4
20260504215904 72 235 6.1 20.0 0.00 0.00 0.00 48 1008.3
20260504215401 72 233 8.7 13.9 0.00 0.00 0.00 48 1008.6
20260504214857 72 265 6.1 13.0 0.00 0.00 0.00 49 1008.4
20260504214354 73 39 7.0 15.6 0.00 0.00 0.00 48 1008.4
20260504213851 72 166 6.1 12.2 0.00 0.00 0.00 48 1008.3
20260504213346 72 293 7.0 11.3 0.00 0.00 0.00 49 1008.5
20260504212844 72 276 6.1 8.7 0.00 0.00 0.00 48 1008.5
20260504212340 72 180 4.3 6.1 0.00 0.00 0.00 49 1008.5
20260504211838 72 200 5.2 12.2 0.00 0.00 0.00 48 1008.5
20260504211333 72 275 3.5 9.6 0.00 0.00 0.00 47 1008.5
20260504210831 74 229 8.7 14.8 0.00 0.00 0.00 45 1008.4
20260504210328 73 310 5.2 11.3 0.00 0.00 0.00 46 1008.4
20260504205825 72 209 5.2 9.6 0.00 0.00 0.00 47 1008.6
20260504205323 73 227 6.1 8.7 0.00 0.00 0.00 46 1008.6
20260504204821 75 227 7.0 13.0 0.00 0.00 0.00 45 1008.6
20260504204319 74 255 5.2 9.6 0.00 0.00 0.00 45 1008.5
20260504203818 73 244 11.3 15.6 0.00 0.00 0.00 46 1008.4
20260504203315 72 318 0.9 8.7 0.00 0.00 0.00 47 1008.6
20260504202810 72 225 11.3 14.8 0.00 0.00 0.00 46 1008.6
20260504202308 72 61 3.5 9.6 0.00 0.00 0.00 46 1008.6
20260504201804 74 64 4.3 9.6 0.00 0.00 0.00 45 1008.7
20260504201302 73 213 6.1 14.8 0.00 0.00 0.00 46 1008.8
20260504200759 72 249 5.2 13.9 0.00 0.00 0.00 46 1008.7
20260504200255 73 5 7.8 12.2 0.00 0.00 0.00 46 1008.8
20260504195752 73 219 4.3 11.3 0.00 0.00 0.00 46 1008.9
20260504195247 73 234 7.8 18.2 0.00 0.00 0.00 46 1008.9
20260504194745 73 245 10.4 13.0 0.00 0.00 0.00 46 1008.8
20260504194241 72 257 2.6 7.0 0.00 0.00 0.00 46 1009.0
20260504193737 73 55 5.2 7.8 0.00 0.00 0.00 45 1009.1
20260504193235 72 243 7.8 13.9 0.00 0.00 0.00 46 1009.3
20260504192733 72 232 2.6 11.3 0.00 0.00 0.00 45 1009.5
20260504192231 71 140 7.8 11.3 0.00 0.00 0.00 45 1009.8
20260504191729 72 195 3.5 9.6 0.00 0.00 0.00 45 1009.5
20260504191226 73 237 6.1 11.3 0.00 0.00 0.00 45 1009.7
20260504190721 72 248 7.0 12.2 0.00 0.00 0.00 44 1009.5
20260504190218 72 303 2.6 8.7 0.00 0.00 0.00 47 1009.8
20260504185714 71 261 7.0 11.3 0.00 0.00 0.00 44 1009.5
20260504185211 71 324 5.2 8.7 0.00 0.00 0.00 45 1009.4
20260504184707 73 240 7.8 9.6 0.00 0.00 0.00 42 1009.8
20260504184203 72 185 6.1 13.0 0.00 0.00 0.00 44 1009.8
20260504183659 73 247 11.3 14.8 0.00 0.00 0.00 40 1009.8
20260504183156 73 258 20.0 21.7 0.00 0.00 0.00 41 1009.9
20260504182654 73 243 13.9 14.8 0.00 0.00 0.00 41 1010.4
20260504182151 73 273 8.7 9.6 0.00 0.00 0.00 42 1010.2
20260504181649 72 237 7.8 9.6 0.00 0.00 0.00 42 1010.1
20260504181146 73 255 11.3 14.8 0.00 0.00 0.00 40 1010.2
20260504180645 73 238 9.6 14.8 0.00 0.00 0.00 40 1010.5
20260504180143 73 296 9.6 12.2 0.00 0.00 0.00 39 1010.3
20260504175640 72 239 7.0 11.3 0.00 0.00 0.00 44 1010.5
20260504175137 71 228 6.1 12.2 0.00 0.00 0.00 44 1010.6
20260504174636 71 237 12.2 14.8 0.00 0.00 0.00 42 1010.5
20260504174131 71 218 7.8 11.3 0.00 0.00 0.00 44 1010.8
20260504173629 71 173 3.5 13.0 0.00 0.00 0.00 43 1010.8
20260504173126 70 176 6.1 13.0 0.00 0.00 0.00 44 1010.7
20260504172622 69 176 6.1 12.2 0.00 0.00 0.00 47 1011.1
20260504172119 70 96 2.6 13.0 0.00 0.00 0.00 49 1011.1
20260504171615 70 242 5.2 9.6 0.00 0.00 0.00 47 1011.1
20260504171113 70 113 5.2 9.6 0.00 0.00 0.00 46 1011.2
20260504170609 70 239 7.8 14.8 0.00 0.00 0.00 46 1011.2
20260504170107 70 247 5.2 13.0 0.00 0.00 0.00 46 1011.0
20260504150952 65 243 7.0 9.6 0.00 0.00 0.00 49 1012.7
20260504150449 65 199 6.1 8.7 0.00 0.00 0.00 50 1012.8
20260504140916 61 92 3.5 9.6 0.00 0.00 0.00 52 1013.2
20260504140412 60 249 3.5 7.0 0.00 0.00 0.00 52 1013.3
20260504130337 56 252 3.5 8.7 0.00 0.00 0.00 56 1013.7
20260504120300 52 212 7.0 7.8 0.00 0.00 0.00 58 1013.7
20260504110224 46 100 0.0 0.0 0.00 0.00 0.00 67 1013.9
20260504100148 45 147 0.9 0.9 0.00 0.00 0.00 67 1013.8
20260504090110 44 90 0.0 0.9 0.00 0.00 0.00 69 1014.5
20260504081541 42 145 0.9 1.7 0.00 0.00 0.00 72 1014.5
20260504081036 41 101 0.0 0.0 0.00 0.00 0.00 72 1014.6
20260504080533 41 135 0.0 2.6 0.00 0.00 0.00 73 1014.5
20260504050346 43 261 1.7 2.6 0.00 0.00 0.00 69 1015.3
20260504045843 43 254 1.7 2.6 0.00 0.00 0.00 67 1015.3
20260504045338 42 238 1.7 2.6 0.00 0.00 0.00 71 1015.4
20260504044835 42 241 1.7 2.6 0.00 0.00 0.00 71 1015.4
20260504044332 43 282 1.7 2.6 0.00 0.00 0.00 69 1015.3
20260504043830 43 279 1.7 2.6 0.00 0.00 0.00 69 1015.1
20260504043326 43 245 0.9 1.7 0.00 0.00 0.00 68 1015.0
20260504042824 44 261 2.6 3.5 0.00 0.00 0.00 68 1015.3
20260504042320 44 235 0.9 1.7 0.00 0.00 0.00 68 1015.4
20260504041816 44 238 1.7 2.6 0.00 0.00 0.00 67 1015.3
20260504041313 44 223 2.6 6.1 0.00 0.00 0.00 67 1015.3
20260504040809 45 241 1.7 2.6 0.00 0.00 0.00 66 1015.1
20260504040307 46 71 0.9 3.5 0.00 0.00 0.00 65 1015.3
20260504035802 47 242 3.5 5.2 0.00 0.00 0.00 61 1015.0
20260504035300 48 228 2.6 6.1 0.00 0.00 0.00 58 1015.3
20260504034757 50 265 2.6 6.1 0.00 0.00 0.00 54 1015.3
20260504034254 49 237 1.7 5.2 0.00 0.00 0.00 55 1015.1
20260504033751 50 248 3.5 5.2 0.00 0.00 0.00 54 1015.3
20260504033249 50 33 0.9 3.5 0.00 0.00 0.00 52 1015.1
20260504032746 50 250 4.3 5.2 0.00 0.00 0.00 53 1015.4
20260504032243 50 226 1.7 7.0 0.00 0.00 0.00 54 1015.1
20260504031739 50 151 2.6 5.2 0.00 0.00 0.00 54 1015.0
20260504031237 51 231 0.0 3.5 0.00 0.00 0.00 53 1015.3
20260504030732 51 244 5.2 6.1 0.00 0.00 0.00 52 1015.1
20260504030230 50 162 1.7 5.2 0.00 0.00 0.00 53 1014.9
20260504025726 50 277 0.9 5.2 0.00 0.00 0.00 54 1015.0
20260504025223 50 243 1.7 6.1 0.00 0.00 0.00 55 1015.1
20260504024720 51 224 2.6 2.6 0.00 0.00 0.00 54 1015.3
20260504024217 50 222 5.2 7.0 0.00 0.00 0.00 54 1015.5
20260504023714 51 239 0.9 2.6 0.00 0.00 0.00 53 1015.4
20260504023209 50 227 3.5 7.0 0.00 0.00 0.00 53 1015.3
20260504022706 51 239 2.6 5.2 0.00 0.00 0.00 52 1015.1
20260504022202 51 231 2.6 5.2 0.00 0.00 0.00 53 1015.1
20260504021700 51 55 0.0 5.2 0.00 0.00 0.00 54 1015.0
20260504021156 51 208 1.7 6.1 0.00 0.00 0.00 52 1015.1
20260504020653 51 258 3.5 6.1 0.00 0.00 0.00 52 1015.3
20260504020149 51 20 1.7 5.2 0.00 0.00 0.00 53 1015.3
20260504015646 51 205 3.5 6.1 0.00 0.00 0.00 52 1015.1
20260504015143 51 238 3.5 5.2 0.00 0.00 0.00 53 1015.3
20260504014638 51 260 2.6 5.2 0.00 0.00 0.00 52 1015.3
20260504014136 51 230 0.9 3.5 0.00 0.00 0.00 52 1015.1
20260504013633 52 214 1.7 3.5 0.00 0.00 0.00 50 1015.3
20260504013130 51 230 4.3 11.3 0.00 0.00 0.00 50 1015.0
20260504012627 51 221 3.5 5.2 0.00 0.00 0.00 51 1015.1
20260504012125 52 251 7.8 8.7 0.00 0.00 0.00 49 1015.0